Flag for Switzerland Weather past 2 weeks in Cham, Zug, Switzerland

Now
92 °F

Hot.


Feels Like: 91 °F
Forecast: 64 / 97 °F
Wind: 7 mph from Southwest

Location: Zurich Town / Ville.

Current Time: Jul 4, 2015 at 3:57:40 PM

Latest Report: Jul 4, 2015 at 3:00 PM


Visibility: N/A

Pressure: 30.07 "Hg

Humidity: 30%

Dew point: 57 °F

Location of ChamLocation

Historic Weather in Cham — Graph

°F

Cham temperature yesterday

Maximum temperature yesterday: 92 °F (at 5:00 PM)
Minimum temperature yesterday: 72 °F (at 5:00 AM)
Average temperature yesterday: 81 °F

Past Weeks' High & Low Weather Summary

 TemperatureHumidityPressure
High92 °F (Jul 3, 5:00 PM)97% (Jun 21, 7:00 AM)30.23 "Hg (Jun 21, 7:00 AM)
Low47 °F (Jun 24, 5:00 AM)26% (Jun 25, 8:00 PM)29.70 "Hg (Jun 22, 10:00 PM)
Average67 °F63%30.09 "Hg
* Reported Jun 19 2:00 PM — Jul 4 2:00 PM, Cham, Weather by CustomWeather, © 2015

Note: Actual official high and low records may vary slightly from our data, if they occured in-between our weather recording intervals... More about our weather records

Advertising

Cham weather history for previous 24 hours

 ConditionsComfort  
Time TempWeatherWind HumidityBarometerVisibility
2:00 PM
Sat, Jul 4
90 °FPassing clouds.6 mph34%30.09 "HgN/A
1:00 PM87 °FWarm.3 mph45%30.12 "HgN/A
12:00 PM86 °FWarm.5 mph49%30.13 "HgN/A
11:00 AM84 °FWarm.3 mph53%30.14 "HgN/A
10:00 AM81 °FWarm.2 mph53%30.15 "HgN/A
9:00 AM78 °FWarm.2 mph62%30.15 "HgN/A
8:00 AM74 °FMild.2 mph73%30.17 "HgN/A
7:00 AM71 °FMild.No wind81%30.16 "HgN/A
6:00 AM71 °FMild.1 mph78%30.16 "HgN/A
5:00 AM71 °FMild.1 mph79%30.15 "HgN/A
4:00 AM72 °FMild.2 mph75%30.14 "HgN/A
3:00 AM73 °FMild.2 mph72%30.14 "HgN/A
2:00 AM74 °FMild.5 mph70%30.15 "HgN/A
1:00 AM76 °FMild.7 mph65%30.14 "HgN/A
12:00 AM77 °FMild.7 mph64%30.15 "HgN/A
11:00 PM
Fri, Jul 3
78 °FWarm.3 mph64%30.14 "HgN/A
10:00 PM81 °FWarm.5 mph57%30.12 "HgN/A
9:00 PM85 °FWarm.8 mph50%30.11 "HgN/A
8:00 PM84 °FScattered clouds.5 mph56%30.12 "HgN/A
7:00 PM89 °FHot.6 mph44%30.11 "HgN/A
6:00 PM91 °FHot.3 mph36%30.09 "HgN/A
5:00 PM92 °FHot.3 mph36%30.08 "HgN/A
4:00 PM91 °FHot.2 mph36%30.10 "HgN/A
3:00 PM91 °FHot.3 mph38%30.12 "HgN/A
Weather by CustomWeather, © 2015

See weather overviewHow to use our weather pages